Location: Turtle Rock Observatory
(36.6913°N, 81.9708°W)
Time: 11:13:22
(UTC-04:00)

Daily predictions for brighter satellites

Satellite Brightness Start Highest point End
(mag) Time Altitude Azimuth Time Altitude Azimuth Time Altitude Azimuth
Cosmos 2123 Rocket 4.1 20:01:22 10° N 20:07:38 64° E 20:13:49 10° SSE
Cosmos 2344 4.2 20:01:43 10° SW 20:09:19 65° NW 20:17:43 10° NNE
Lacrosse 5 rocket 3.0 20:08:19 10° N 20:11:02 18° NE 20:13:40 10° E
NOAA 12 4.2 20:06:29 10° SSE 20:11:48 89° WSW 20:17:07 10° NNW
Cosmos 1833 Rocket 3.5 20:07:54 10° N 20:12:56 33° ENE 20:17:57 10° SE
Helios 1B rocket 4.0 20:12:47 10° ENE 20:15:09 15° E 20:17:29 10° SE
Cosmos 1805 3.3 20:12:22 10° S 20:16:11 58° E 20:20:01 10° NNE
ISS -3.7 20:14:33 10° SW 20:17:47 80° NW 20:21:03 10° NE
HJ-1C 3.7 20:16:00 10° SSE 20:19:15 45° ENE 20:22:32 10° N
Resurs 1-3 4.4 20:16:29 10° SE 20:20:19 31° ENE 20:24:10 10° N
ATLAS 5 CENTAUR R/B 1.8 20:16:14 10° SSW 20:20:46 60° ESE 20:25:41 10° NE
Cosmos 2278 Rocket 3.4 20:17:14 10° SW 20:22:41 47° WNW 20:28:10 10° N
SWAS 4.5 20:21:12 10° S 20:25:25 60° ESE 20:29:41 10° NNE
FREGAT/IRIS 3.0 20:23:55 10° S 20:26:57 67° W 20:29:59 10° NNW
Cosmos 1733 4.2 20:25:14 10° SSE 20:28:27 26° E 20:31:42 10° NNE
CZ-3B DEB 4.4 20:19:53 10° WSW 20:30:36 37° NW 20:36:01 10° NNE
Cosmos 1076 Rocket 3.6 20:28:51 10° N 20:33:00 52° E 20:37:08 10° SSE
Cosmos 1470 3.4 20:31:44 10° SSE 20:35:20 34° E 20:38:56 10° NNE
Cosmos 1459 Rocket 4.4 20:32:02 10° SSE 20:37:44 39° E 20:43:22 10° NNE
Helios 1A 4.0 20:36:03 13° ESE 20:39:01 26° ENE 20:42:31 10° NNE
Cosmos 2297 4.0 20:36:24 10° SSW 20:42:05 74° WNW 20:47:51 10° NNE
Lacrosse 5 4.4 20:38:40 10° WNW 20:42:15 19° NNW 20:45:48 10° NNE
Meteor 1-29 4.2 20:39:44 10° NE 20:42:26 21° E 20:43:56 16° SE
Cosmos 1447 Rocket 4.4 20:38:06 10° N 20:44:13 69° E 20:50:21 10° SSE
Timation 2 Rocket 4.0 20:40:05 10° NNW 20:46:14 57° ENE 20:51:54 11° SE
Okean 3 Rocket 4.0 20:41:56 10° NNW 20:46:18 65° W 20:50:41 10° S
H-2A R/B 2.7 20:42:38 10° SSE 20:46:31 78° ENE 20:50:28 10° N
Cosmos 2173 Rocket 4.2 20:41:20 10° SSE 20:47:10 46° E 20:53:05 10° NNE
Cosmos 372 Rocket 4.0 20:42:56 10° SSW 20:48:02 82° WNW 20:53:13 10° NNE
SJ-6B 4.2 20:47:38 10° SSW 20:51:08 38° W 20:54:39 10° NNW
Cosmos 158 Rocket 4.0 20:46:41 10° NNW 20:51:52 69° ENE 20:57:07 10° SSE
COSMOS 2487 2.4 20:49:38 10° NNW 20:53:13 86° ENE 20:56:40 11° SSE
SAR-Lupe-4 4.1 20:51:47 21° SE 20:53:38 37° ENE 20:56:57 10° N
USA 215 4.0 20:48:14 10° ENE 20:53:49 30° SE 20:59:22 10° S
Abrixas 3.8 20:51:27 10° WNW 20:54:02 32° SW 20:55:44 17° SSE
Cosmos 2082 Rocket 2.1 20:49:48 10° NNW 20:55:31 84° ENE 21:01:10 10° SSE
Cosmos 1340 Rocket 3.2 20:51:54 10° N 20:55:41 39° ENE 20:57:45 22° SE
Cosmos 1269 Rocket 4.0 20:50:44 10° NNW 20:56:03 90° WSW 21:01:20 10° SSE
Cosmos 1818 4.2 20:53:18 10° NW 20:58:37 57° WSW 21:03:53 10° SSE
Cosmos-2242 2.8 20:55:53 10° S 21:00:06 78° E 21:04:23 10° N
BREEZE-M DEB (TANK) 2.8 21:00:39 10° WSW 21:03:39 88° NNW 21:12:53 10° ENE
Cosmos 1766 Rocket 3.5 21:00:52 10° N 21:05:23 89° ENE 21:09:51 10° S
ALOS 3.6 21:02:28 10° SSW 21:06:50 40° W 21:11:15 10° NNW
Cosmos 1271 Rocket 3.0 21:07:32 10° SSW 21:11:32 74° W 21:15:34 10° N
SAR-Lupe-1 4.1 21:11:15 39° SE 21:12:15 56° ENE 21:15:46 10° N
GP-B 3.0 21:08:02 10° S 21:12:28 89° W 21:16:56 10° N
Gblst 52 Del rocket 4.2 21:08:24 10° SW 21:14:32 69° SE 21:19:15 15° NE
Spot 2 Rocket 4.0 21:10:09 10° S 21:15:11 62° WSW 21:20:16 10° NNW
SL-14 R/B 4.2 21:12:24 10° NNE 21:15:15 29° ENE 21:15:15 29° ENE
Cosmos 1674 3.1 21:13:32 10° NNW 21:17:16 61° W 21:21:02 10° S
Spot 1 4.2 21:15:15 19° SSE 21:18:38 80° ENE 21:23:36 10° N
Cosmos 494 Rocket 4.4 21:13:57 10° N 21:18:48 41° ENE 21:19:57 36° E
Cosmos 2016 Rocket 3.9 21:13:24 10° S 21:19:29 61° E 21:25:33 10° NNE
USA 186 2.9 21:22:51 27° NW 21:22:51 27° NW 21:24:06 10° NNW
Resurs 01 Rocket 2.9 21:19:24 10° S 21:23:33 40° W 21:27:44 10° NNW
PSLV R/B 3.5 21:20:42 10° WSW 21:23:17 51° SSW 21:23:17 51° SSW
Cosmos 1328 4.0 21:21:30 10° N 21:25:05 47° ENE 21:25:05 47° ENE
CZ-4C R/B 2.7 21:23:05 10° S 21:33:11 - NE 21:26:26 33° SSE
Cosmos 1184 Rocket 3.4 21:25:54 10° N 21:28:30 46° NNE 21:28:30 46° NNE
Cosmos 1725 Rocket 4.1 21:26:22 24° SSE 21:29:56 49° E 21:35:53 10° NNE
Cosmos 2058 4.5 21:27:17 10° NNE 21:29:15 22° NE 21:29:15 22° NE
GPS 2-05 Rocket1 3.0 21:29:39 10° W 21:32:57 67° SW 21:32:57 67° SW
Envisat 2.9 21:31:29 38° SSE 21:33:26 73° ENE 21:38:31 10° N
OAO 2 Rocket 3.5 21:30:23 10° WSW 21:35:27 56° SSE 21:36:08 51° SE
Cosmos 1743 Rocket 3.5 21:31:54 10° N 21:36:22 90° W 21:37:42 45° S
Cosmos 1500 Rocket 3.4 21:32:40 10° N 21:36:54 64° ENE 21:36:54 64° ENE
SeaSat 1 3.8 21:32:56 10° S 21:37:27 37° WSW 21:42:01 10° NW
CZ-4B DEB 3.8 21:41:50 42° NW 21:41:50 42° NW 21:44:04 10° NNW
Cosmos 1939 Rocket 2.8 21:41:39 75° NE 21:41:39 75° NE 21:45:40 10° N
Cosmos 2369 Rocket 2.3 21:36:57 10° S 21:42:50 51° E 21:47:52 10° NNE
SL-08 R/B 4.4 21:36:21 10° S 21:42:41 79° E 21:49:07 10° N
ERS-1 Rocket 3.3 21:43:12 45° ENE 21:43:12 45° ENE 21:47:43 10° N
Lacrosse 5 rocket 1.9 21:46:47 10° NW 21:50:09 48° WSW 21:50:09 48° WSW
Helios 1B rocket 3.9 21:46:45 10° N 21:50:34 37° WNW 21:54:21 10° SW
Cosmos 2151 3.7 21:48:26 10° N 21:51:27 44° NNE 21:51:27 44° NNE
ISS -0.8 21:53:06 10° NW 21:54:43 13° NNW 21:55:50 11° N
Cosmos 1833 Rocket 4.3 21:51:53 10° NW 21:56:44 31° WSW 22:01:19 11° SSW
Tsikada Rocket 3.9 21:50:36 10° N 21:56:49 66° E 21:57:31 61° ESE
H-2A R/B 4.1 21:59:47 15° NE 21:59:47 15° NE 22:01:12 10° NNE
Cosmos 1816 Rocket 4.4 22:17:12 10° N 22:23:12 84° N 22:23:12 84° N
SPOT 5 4.2 22:31:27 38° N 22:31:27 38° N 22:34:43 10° N
Cosmos 2233 Rocket 4.2 22:33:30 65° N 22:33:30 65° N 22:38:43 10° N
ARGOS 4.3 22:36:22 35° N 22:36:22 35° N 22:39:26 10° N
USA 215 3.4 22:30:35 10° NE 22:37:04 67° NW 22:43:30 10° WSW
USA 267 4.3 23:08:51 35° N 23:08:51 35° N 23:13:35 10° NNW
CZ-4C R/B 4.1 23:11:50 10° WSW 23:17:58 25° NNW 23:21:28 10° NNE
Cosmos 2369 Rocket 4.4 23:23:53 15° W 23:26:44 21° NW 23:30:53 10° N
